Temperature
20 20 20 20 20 20 20 20 20 20 20 20 20 20 19 19 19 19 19 19 18 18 18 18 18 18 18 18 18 18 18 18 18 17 17 17 17 17 17 18 18 17 17
21 20 20 20 20 20 20 20 20 19 19 19 19 19 19 19 19 19 19 18 18 18 18 18 18 18 18 18 18 18 18 18 17 17 17 17 17 17 18 18 17 17 17
21 20 20 20 20 20 20 19 19 19 19 19 19 19 19 19 19 18 18 18 18 18 18 18 18 18 18 18 18 18 18 17 17 17 17 17 17 17 17 17 17 17 17
21 21 20 20 20 20 19 19 19 19 19 19 19 19 19 19 19 18 18 18 18 18 18 18 18 18 18 18 17 17 17 17 17 17 17 17 17 17 17 17 17 17 17
21 21 20 20 20 20 19 19 19 19 19 19 19 19 18 18 18 18 18 18 18 18 18 18 18 18 18 17 17 17 17 17 17 17 17 17 17 17 17 17 17 17 17
21 21 20 20 20 20 20 19 19 19 19 19 19 18 18 18 18 18 18 18 18 18 18 18 18 18 17 17 17 17 17 17 17 17 17 17 17 17 17 17 17 17 17
21 21 20 20 20 20 20 20 19 19 19 19 19 18 18 18 18 18 18 18 18 18 18 18 18 18 17 17 17 17 17 17 17 17 17 17 17 17 17 17 17 17 17
22 21 20 20 20 20 20 20 19 19 19 19 18 18 18 18 18 18 18 18 18 18 18 18 18 18 17 17 17 17 17 17 17 17 17 17 17 17 17 17 17 17 17
22 21 21 20 20 20 20 19 19 19 19 18 19 18 18 18 18 18 18 18 18 18 18 18 18 17 17 17 17 17 17 17 17 17 17 17 17 17 17 17 17 17 17
22 21 21 21 20 20 20 19 19 19 19 19 18 18 18 18 18 18 18 18 18 18 18 18 18 17 17 17 17 17 17 17 17 18 18 18 17 17 17 17 17 17 17
21 21 21 20 20 20 20 19 19 19 19 18 18 18 18 18 18 18 18 18 18 18 18 18 18 18 17 17 17 17 17 17 18 18 18 18 17 17 17 17 17 17 17
21 21 21 21 20 20 20 19 19 19 19 19 18 18 18 18 18 18 18 18 18 18 18 18 18 18 17 17 17 17 17 17 17 18 18 17 17 17 17 17 17 17 17
21 21 21 20 20 20 20 20 19 19 19 18 18 18 18 18 18 18 18 18 18 18 18 18 18 18 18 18 18 18 17 17 18 18 18 17 17 17 17 17 17 17 17
21 21 21 20 20 20 20 20 19 19 19 19 18 18 18 18 18 18 18 18 18 18 18 18 18 18 18 18 18 18 17 17 17 18 18 17 17 17 17 17 17 17 17
21 21 20 20 20 20 20 20 19 19 19 19 18 18 18 18 18 18 18 18 18 18 18 18 18 18 18 18 18 18 17 17 18 18 18 18 17 17 17 17 17 17 17
21 21 20 20 20 20 19 19 19 19 19 19 18 18 18 18 18 18 18 18 18 18 18 18 18 18 18 18 17 17 18 18 17 18 18 17 17 17 17 17 17 17 17
21 21 20 20 20 19 19 19 19 19 19 19 18 18 18 18 18 18 18 18 18 18 18 18 17 17 17 17 17 17 17 17 17 17 17 17 17 17 17 17 17 17 17
22 21 20 20 20 19 19 19 19 19 19 19 18 18 18 18 18 18 18 18 18 18 18 18 17 17 17 17 17 17 17 17 17 17 17 17 17 17 17 17 17 17 17
22 21 21 20 20 19 19 19 18 18 19 18 18 18 18 18 18 18 18 18 18 18 18 18 18 17 17 17 17 17 17 17 17 17 17 17 17 17 17 17 17 17 17
22 21 21 20 20 19 19 18 18 18 18 18 18 18 18 18 18 18 18 18 18 18 18 18 18 17 17 17 17 17 17 17 17 17 17 17 17 17 17 17 17 17 17
21 21 20 20 20 19 19 19 18 18 18 18 18 18 18 18 18 18 18 18 18 18 18 18 18 18 17 17 17 17 17 17 17 17 17 17 17 17 17 17 17 17 17
21 20 20 20 20 19 19 19 19 19 18 18 18 18 18 18 18 18 18 18 18 18 18 18 18 18 18 17 17 17 17 17 17 17 17 17 17 17 17 17 17 17 17
21 20 20 20 19 19 19 19 18 18 18 18 18 18 18 18 18 18 18 18 18 18 18 18 18 18 18 17 17 17 17 18 18 18 17 17 17 17 17 17 17 17 17
21 20 20 19 19 19 19 19 18 18 18 18 18 18 18 18 18 18 18 18 18 18 18 18 18 18 18 18 18 17 18 18 18 18 17 17 17 17 17 17 17 17 17
21 20 20 19 19 19 19 18 18 18 18 18 18 18 18 18 18 18 18 18 18 18 18 18 18 18 17 18 18 18 18 17 17 18 17 18 17 17 17 17 17 17 17
21 20 20 19 19 19 18 18 18 18 18 18 18 18 18 18 17 17 17 17 18 18 18 18 18 17 17 17 17 17 17 17 18 18 18 18 18 17 17 17 17 17 17
Wind_Speed
9 12 19 18 18 18 18 18 18 18 18 18 18 18 18 18 18 17 17 16 15 15 14 14 14 15 15 15 16 16 17 17 17 17 17 17 18 19 19 19 18 17 19
13 16 20 19 19 18 18 18 17 17 17 17 17 17 17 16 16 16 16 15 15 14 14 14 14 15 15 15 16 16 16 16 17 17 17 17 17 18 18 18 17 16 18
16 17 20 20 19 19 18 18 17 17 17 16 16 16 16 16 16 15 15 15 14 14 14 14 14 14 14 15 15 15 16 16 16 17 16 14 16 17 18 18 18 18 18
16 17 19 21 20 19 19 18 17 17 16 15 15 15 15 15 15 15 15 14 14 14 14 14 14 14 14 14 14 14 14 15 16 16 13 12 14 17 18 18 17 17 17
14 17 20 22 21 20 19 18 17 16 15 15 15 15 15 15 15 15 15 14 14 14 14 14 14 13 13 13 12 12 13 14 16 14 13 13 14 16 17 17 17 16 16
13 17 21 22 21 20 19 18 17 16 15 15 15 15 15 15 15 15 15 14 14 14 14 14 13 13 12 12 12 12 12 14 14 13 13 13 13 16 16 16 16 16 16
14 15 20 22 21 20 20 19 17 16 15 15 15 15 15 15 15 15 15 15 14 14 13 13 13 12 11 11 11 11 11 13 14 13 12 12 13 15 15 15 15 15 15
17 15 19 22 21 20 19 19 17 16 15 15 15 15 15 15 15 15 15 14 14 13 12 12 12 11 10 9 9 10 11 14 14 13 12 12 13 14 14 14 14 14 14
15 14 15 18 19 20 19 18 17 16 15 15 15 15 15 15 15 15 14 13 13 12 12 11 11 10 9 8 8 10 11 13 14 13 12 12 14 14 14 14 14 14 14
13 12 10 13 15 16 17 18 17 16 15 15 15 15 15 15 14 14 13 13 12 11 11 10 9 8 7 7 8 10 11 13 13 13 12 13 14 14 13 13 13 13 13
13 11 10 10 11 13 15 16 17 16 16 15 14 15 14 12 12 11 12 12 11 10 10 9 8 7 6 6 8 10 10 11 12 11 11 13 14 13 13 13 13 13 13
16 13 11 11 11 12 13 13 13 13 13 12 12 13 12 11 10 10 12 11 10 9 8 7 6 5 4 4 6 8 9 12 12 10 11 14 14 13 13 12 13 12 12
17 16 13 12 11 10 8 11 9 9 11 10 11 12 11 10 9 9 8 8 8 7 5 5 3 2 2 2 4 6 9 10 10 10 11 14 14 13 13 12 12 12 12
16 15 14 13 11 9 10 9 9 8 8 8 11 12 10 7 6 7 6 6 6 5 4 4 2 2 2 2 5 7 8 9 10 10 12 14 14 13 13 12 12 12 12
16 16 15 13 12 9 8 7 9 8 9 10 12 13 12 7 5 6 6 7 6 5 5 4 3 2 2 2 4 7 8 10 12 12 12 14 14 13 13 13 12 11 11
16 16 14 15 13 11 9 7 7 8 10 11 11 13 14 12 8 6 5 5 6 7 7 6 5 3 2 2 3 6 8 11 12 12 12 13 14 13 13 13 12 12 11
16 14 14 14 13 12 10 9 8 8 10 9 10 13 14 13 11 8 5 4 6 8 7 5 3 3 2 2 2 4 6 9 11 12 12 12 13 13 13 13 12 12 12
14 14 14 14 13 11 9 7 6 7 7 8 11 11 13 13 13 9 5 5 8 8 6 3 3 2 2 2 2 3 4 6 9 11 12 12 12 11 13 13 13 13 12
14 14 12 12 12 10 8 7 6 6 6 8 10 10 11 12 13 9 5 5 8 5 3 4 3 3 3 2 2 2 3 4 5 9 9 12 13 13 13 14 14 14 14
12 12 12 11 11 10 7 5 5 4 4 6 7 8 10 11 11 9 5 6 7 4 3 3 3 3 3 3 2 1 1 3 4 5 7 10 12 13 13 12 13 14 15
10 11 11 11 10 9 6 5 5 4 4 4 5 8 10 11 11 8 4 4 5 5 5 5 3 3 2 2 2 2 3 2 3 4 5 5 8 12 13 13 13 12 12
12 11 11 11 11 9 7 5 4 4 3 5 4 5 9 10 10 9 6 5 5 5 5 4 4 3 1 2 3 2 2 3 3 3 3 5 5 7 9 13 13 13 12
12 12 12 11 11 10 8 5 4 3 2 2 3 4 5 8 9 8 8 5 5 5 5 5 5 5 3 1 2 4 3 3 3 3 2 3 4 5 5 8 12 13 14
11 11 11 11 10 9 9 8 8 6 5 6 5 5 5 7 8 9 8 7 6 5 5 5 5 4 4 2 1 2 3 4 3 1 3 2 3 5 5 5 8 11 13
11 11 10 10 10 9 9 10 8 6 5 4 4 5 5 4 5 7 7 6 6 5 6 5 5 5 4 4 3 2 2 1 2 3 2 2 1 2 3 3 4 6 10
9 9 9 10 9 9 9 9 9 8 7 6 6 6 5 4 3 5 6 6 6 5 6 6 6 6 5 4 3 3 3 3 3 3 3 2 1 2 1 1 2 4 6
Wind_Direction
145 148 142 135 128 124 120 115 110 106 103 102 100 100 101 103 106 109 112 113 113 112 112 113 112 111 110 111 111 111 112 113 115 116 116 117 117 116 113 112 110 111 114
145 147 142 137 131 128 124 120 116 112 109 107 106 105 105 106 107 110 112 113 113 113 113 114 114 114 113 113 112 113 114 115 115 115 114 115 116 115 114 113 113 116 115
139 143 141 138 134 131 128 125 122 118 115 113 111 110 110 110 110 111 112 112 113 115 116 116 116 115 115 115 115 115 115 115 114 112 109 109 114 115 115 115 115 115 115
138 139 141 140 136 134 132 129 127 123 120 118 117 116 114 114 114 113 115 115 116 116 117 117 117 117 117 118 118 117 118 118 117 113 107 110 115 117 116 116 116 117 116
134 138 142 140 138 136 135 132 129 127 125 122 121 120 119 119 118 117 117 117 118 119 118 118 117 117 117 118 117 118 117 120 119 113 106 107 115 120 120 119 118 118 117
134 138 143 141 139 138 136 134 133 131 128 126 125 124 123 122 121 120 119 118 118 118 118 119 118 117 116 115 116 116 115 118 118 113 110 113 119 123 123 122 121 119 118
136 139 144 143 142 141 140 139 137 135 134 131 129 128 126 125 124 122 121 119 119 118 118 119 118 117 116 114 115 116 116 121 122 118 116 118 123 125 124 123 123 122 122
141 142 145 146 145 145 143 143 142 140 138 137 135 132 130 128 126 125 125 124 122 120 119 119 118 117 115 111 110 117 118 125 126 123 120 122 126 127 127 126 127 126 127
142 143 145 148 149 149 148 147 146 145 144 142 139 136 134 132 131 131 130 128 127 124 122 120 118 116 114 109 108 115 123 127 130 130 129 128 130 130 130 131 130 129 129
142 143 143 147 149 149 151 152 151 150 149 146 143 141 140 138 136 135 134 133 131 128 126 124 121 119 116 109 111 120 121 127 134 132 134 138 137 136 136 135 134 133 132
148 150 149 149 149 149 153 157 155 154 155 153 151 149 142 137 138 139 142 140 137 135 133 131 129 127 119 107 109 119 117 125 134 135 141 145 145 143 141 142 141 140 139
159 162 159 158 157 158 160 153 156 158 159 156 157 150 146 147 149 149 152 150 147 144 141 140 139 133 115 101 110 120 120 128 135 142 148 151 150 149 147 147 147 146 145
164 164 164 163 164 167 156 154 161 161 162 164 166 161 160 159 158 151 153 153 152 152 148 151 150 137 134 130 126 129 131 132 143 151 158 158 156 155 154 153 153 152 152
165 168 166 167 169 171 163 166 169 167 172 175 179 176 164 157 153 157 158 162 162 163 166 172 181 209 192 169 148 145 147 143 150 156 166 165 163 162 160 160 160 160 160
166 168 167 167 168 167 164 175 173 176 179 180 178 177 168 161 163 166 169 172 175 177 181 190 201 207 202 176 154 151 149 150 157 166 172 171 170 170 168 168 168 168 169
169 170 169 168 169 165 169 175 170 176 178 176 176 177 172 170 169 166 169 177 185 187 187 190 191 189 183 148 142 153 153 153 161 167 172 176 177 177 176 176 177 178 179
169 167 169 168 166 165 169 173 167 171 174 174 177 178 174 171 170 165 163 172 187 188 186 182 179 162 153 144 141 146 153 158 165 172 176 179 183 186 186 185 186 187 187
164 165 170 171 166 165 162 159 158 165 170 175 174 175 174 169 168 161 161 177 184 179 172 164 160 145 153 158 166 169 159 165 171 178 180 184 186 190 195 195 194 194 194
166 166 165 163 164 164 157 149 153 163 168 172 169 169 173 170 167 161 166 177 175 167 169 177 157 155 161 169 184 183 179 176 177 184 187 192 194 197 199 202 202 201 202
164 162 158 158 159 157 149 141 143 148 161 165 167 170 172 172 168 162 167 175 168 157 167 164 154 156 160 166 173 172 211 203 190 187 195 198 200 203 205 205 206 210 212
159 159 158 159 160 155 153 156 156 162 163 165 173 174 175 172 168 163 161 165 161 164 173 165 151 151 158 137 96 19 345 304 226 208 201 195 203 206 205 207 208 211 217
168 166 161 164 166 166 167 162 157 152 166 166 169 177 179 176 176 175 163 171 168 162 165 163 150 142 167 144 135 109 2 336 313 236 211 202 203 199 202 209 209 214 219
171 171 169 168 170 170 164 146 137 116 105 144 172 186 189 181 181 178 171 172 173 166 171 175 165 155 173 198 155 149 155 220 276 308 252 218 198 194 202 202 207 214 221
174 171 165 166 168 168 163 163 168 173 179 191 184 190 192 185 178 177 175 174 178 173 173 182 173 164 159 181 199 188 171 163 162 270 315 269 217 208 205 209 211 213 217
168 167 167 166 169 169 170 173 177 180 187 180 176 183 189 188 185 180 176 174 178 181 184 183 173 171 165 170 180 175 143 134 139 150 235 295 309 254 213 212 208 212 214
163 165 167 168 174 175 175 176 179 181 179 174 178 182 181 182 196 199 183 181 183 185 189 188 182 176 176 170 171 167 163 160 176 162 184 224 243 282 217 206 207 204 204
Height
1528 1530 1532 1533 1534 1536 1536 1537 1538 1539 1540 1540 1541 1542 1543 1543 1544 1545 1546 1547 1547 1548 1549 1549 1550 1551 1552 1552 1553 1553 1554 1555 1555 1555 1556 1557 1558 1558 1559 1560 1560 1561 1562
1526 1530 1533 1534 1536 1537 1538 1539 1539 1540 1541 1542 1542 1543 1544 1545 1545 1546 1547 1548 1548 1549 1550 1551 1551 1552 1553 1554 1554 1555 1555 1556 1557 1557 1558 1558 1559 1560 1561 1561 1562 1563 1564
1527 1530 1533 1535 1536 1538 1539 1540 1541 1542 1542 1543 1544 1544 1545 1546 1547 1547 1548 1549 1550 1550 1551 1552 1553 1554 1555 1556 1556 1557 1557 1558 1558 1559 1559 1560 1561 1562 1563 1563 1564 1565 1566
1528 1530 1533 1535 1537 1539 1540 1541 1542 1543 1544 1544 1545 1546 1546 1547 1548 1549 1549 1550 1551 1552 1552 1553 1554 1555 1556 1557 1558 1559 1559 1560 1560 1561 1561 1562 1563 1564 1565 1566 1567 1567 1568
1528 1531 1534 1536 1538 1539 1541 1542 1543 1544 1545 1546 1546 1547 1548 1549 1549 1550 1551 1552 1552 1553 1554 1555 1556 1557 1558 1559 1560 1561 1561 1562 1562 1563 1564 1564 1565 1566 1567 1568 1569 1570 1570
1529 1532 1534 1536 1538 1540 1541 1543 1544 1545 1546 1547 1548 1548 1549 1550 1551 1551 1552 1553 1554 1555 1555 1556 1557 1559 1560 1561 1561 1563 1563 1564 1564 1565 1566 1566 1567 1568 1569 1570 1571 1571 1572
1529 1532 1535 1537 1539 1540 1542 1543 1545 1546 1547 1548 1549 1550 1550 1551 1552 1553 1554 1554 1555 1556 1557 1558 1559 1560 1562 1562 1563 1564 1565 1566 1566 1567 1568 1568 1569 1570 1571 1572 1573 1573 1574
1529 1532 1535 1537 1539 1541 1542 1544 1545 1547 1548 1549 1550 1551 1552 1553 1553 1554 1555 1556 1557 1558 1559 1560 1561 1562 1564 1564 1565 1566 1567 1567 1568 1569 1570 1570 1571 1572 1573 1573 1574 1575 1576
1530 1532 1535 1537 1539 1541 1543 1544 1546 1547 1549 1550 1551 1552 1553 1554 1555 1556 1557 1558 1559 1560 1561 1562 1563 1564 1566 1566 1567 1568 1569 1569 1570 1571 1571 1572 1573 1574 1574 1575 1576 1577 1577
1531 1533 1535 1537 1539 1541 1543 1545 1546 1548 1549 1551 1552 1553 1554 1556 1557 1558 1559 1560 1561 1562 1563 1564 1565 1566 1567 1568 1569 1570 1571 1571 1572 1573 1573 1574 1575 1575 1576 1577 1578 1578 1579
1531 1533 1535 1538 1539 1541 1543 1545 1547 1548 1550 1551 1553 1554 1555 1557 1558 1559 1560 1561 1562 1563 1565 1566 1567 1568 1569 1570 1571 1572 1572 1573 1574 1574 1575 1575 1576 1577 1577 1578 1579 1580 1580
1529 1532 1535 1537 1539 1541 1543 1545 1546 1549 1550 1552 1553 1555 1556 1558 1559 1560 1562 1563 1564 1565 1566 1567 1569 1570 1571 1571 1572 1573 1574 1574 1575 1576 1576 1577 1577 1578 1579 1579 1580 1581 1582
1528 1531 1534 1536 1539 1541 1542 1544 1546 1548 1550 1552 1554 1555 1557 1558 1560 1561 1563 1564 1565 1566 1568 1569 1570 1571 1572 1573 1573 1574 1575 1575 1576 1577 1577 1578 1578 1579 1580 1580 1581 1582 1582
1527 1530 1533 1535 1538 1541 1542 1544 1546 1548 1550 1552 1554 1555 1557 1559 1560 1562 1564 1565 1566 1568 1569 1570 1571 1572 1573 1574 1574 1575 1575 1576 1577 1578 1578 1578 1579 1580 1581 1581 1582 1583 1583
1525 1529 1532 1534 1537 1540 1542 1544 1545 1547 1549 1551 1553 1555 1557 1559 1560 1562 1564 1566 1567 1568 1570 1571 1572 1573 1573 1574 1575 1576 1576 1577 1577 1578 1578 1579 1580 1580 1581 1582 1583 1583 1584
1524 1527 1530 1532 1536 1539 1541 1543 1545 1547 1549 1551 1553 1555 1557 1559 1561 1562 1564 1566 1567 1568 1570 1571 1572 1573 1574 1575 1575 1576 1577 1577 1578 1578 1579 1579 1580 1581 1581 1582 1583 1584 1584
1522 1525 1528 1530 1534 1537 1539 1541 1543 1546 1548 1550 1553 1555 1556 1558 1560 1562 1564 1565 1567 1568 1570 1571 1572 1573 1574 1575 1576 1576 1577 1577 1578 1579 1579 1580 1580 1581 1581 1582 1583 1583 1584
1521 1523 1526 1529 1532 1534 1537 1539 1542 1544 1547 1549 1552 1554 1556 1557 1560 1561 1563 1565 1566 1568 1569 1571 1572 1573 1574 1575 1576 1576 1577 1577 1578 1579 1579 1580 1580 1581 1581 1582 1582 1583 1584
1519 1522 1524 1527 1530 1532 1535 1538 1540 1543 1546 1548 1551 1553 1555 1557 1558 1560 1562 1564 1566 1567 1569 1570 1572 1573 1574 1575 1575 1576 1576 1577 1577 1578 1579 1579 1580 1580 1581 1581 1582 1582 1583
1518 1520 1522 1525 1528 1530 1533 1536 1539 1541 1544 1547 1549 1551 1553 1555 1557 1559 1561 1563 1565 1566 1568 1569 1570 1572 1573 1574 1575 1576 1576 1576 1577 1577 1578 1579 1579 1580 1580 1581 1581 1582 1582
1517 1519 1520 1522 1525 1528 1530 1533 1536 1539 1542 1545 1548 1550 1552 1554 1556 1557 1559 1561 1563 1565 1566 1568 1569 1571 1572 1573 1574 1575 1575 1576 1576 1576 1577 1577 1578 1578 1579 1580 1580 1581 1582
1514 1517 1519 1521 1524 1527 1529 1532 1535 1538 1540 1543 1546 1548 1550 1552 1554 1556 1558 1559 1561 1563 1565 1566 1568 1569 1570 1572 1573 1573 1574 1575 1574 1575 1575 1576 1577 1577 1578 1578 1579 1580 1580
1512 1515 1517 1520 1522 1525 1528 1531 1534 1536 1539 1541 1543 1546 1548 1550 1552 1554 1556 1558 1560 1562 1563 1565 1566 1567 1569 1570 1571 1572 1572 1572 1572 1573 1573 1574 1575 1576 1576 1577 1577 1578 1578
1510 1513 1515 1518 1521 1523 1526 1528 1531 1533 1535 1537 1540 1543 1546 1548 1550 1552 1554 1556 1558 1559 1561 1562 1564 1566 1567 1568 1569 1570 1571 1571 1571 1571 1572 1572 1573 1574 1574 1575 1575 1576 1576
1509 1511 1514 1516 1519 1521 1524 1526 1529 1531 1533 1536 1539 1541 1543 1545 1548 1550 1552 1554 1555 1557 1558 1560 1561 1563 1564 1565 1566 1567 1568 1569 1569 1570 1569 1571 1571 1572 1572 1573 1573 1574 1575
1509 1510 1512 1514 1517 1519 1522 1524 1527 1529 1531 1533 1535 1538 1540 1542 1544 1547 1549 1551 1552 1554 1556 1557 1559 1560 1562 1563 1564 1565 1566 1567 1567 1568 1568 1568 1569 1570 1570 1571 1572 1572 1573